Temperature
5 4 4 4 5 6 5 5 6 6 7 7 6 7 7 8 7 7 8 8 9 10 11 11 11 11 11 11 11 12 11 12 11 11 11 11 11 11 11 11 11 11 11 11
3 3 4 5 5 5 5 5 5 6 7 7 6 6 7 7 6 7 7 7 8 9 10 10 11 11 11 11 11 11 11 11 11 11 11 11 11 11 10 10 10 10 10 10
3 4 4 4 4 4 4 4 5 5 6 6 6 6 6 6 6 7 7 7 7 8 8 9 10 10 11 11 11 11 11 11 11 11 11 10 10 10 10 10 10 10 10 10
3 3 4 4 4 4 4 5 5 5 5 5 6 5 5 5 5 5 5 5 6 7 7 8 9 9 10 10 10 11 10 10 10 11 10 10 10 10 10 10 10 10 10 10
2 3 3 3 4 4 4 4 4 5 4 4 4 4 4 4 5 5 4 5 5 6 7 7 8 9 9 10 10 10 10 10 10 10 10 10 10 10 10 10 10 10 9 10
2 3 3 3 3 4 4 4 4 3 3 4 4 4 4 3 4 4 4 4 5 5 6 7 8 8 9 9 9 9 9 9 10 10 9 9 10 9 9 9 9 9 9 9
1 2 2 3 3 3 3 3 3 3 3 3 4 4 3 3 3 3 3 3 4 5 5 6 7 7 8 8 8 9 9 9 9 9 9 9 9 9 9 9 9 9 9 9
-0 0 2 2 2 2 2 2 2 3 3 3 3 3 2 2 2 2 3 3 3 4 4 5 5 6 7 7 8 8 8 8 8 8 8 8 9 9 9 9 8 8 9 9
-1 -0 1 2 2 2 1 2 2 2 2 2 2 2 1 2 1 1 1 1 2 2 3 4 4 5 6 6 7 7 8 8 8 8 8 8 8 8 8 8 8 8 8 8
-1 -1 -0 1 2 2 1 1 1 1 2 2 2 1 1 1 0 0 0 0 1 2 2 3 4 4 5 5 6 6 7 7 7 7 8 8 8 8 7 7 7 7 8 8
-1 -2 -1 -0 -0 -0 0 0 0 0 1 2 2 1 1 -0 -0 -0 -0 -0 0 1 2 2 3 4 4 5 5 6 6 6 7 7 7 7 7 7 7 7 7 7 7 7
-2 -2 -2 -2 -1 -0 -1 -1 -1 -0 -0 0 1 0 -0 -1 -1 -1 -1 -1 -0 0 1 2 2 3 3 4 4 5 5 5 6 6 6 6 7 7 6 6 6 6 6 6
-2 -3 -3 -2 -1 -1 -2 -1 -1 -1 -1 -1 -0 0 -0 -1 -1 -1 -1 -1 -1 -0 0 1 1 2 2 3 3 4 4 5 5 5 5 6 6 6 6 6 6 6 6 6
-1 -3 -3 -3 -2 -2 -2 -2 -2 -2 -2 -2 -1 -1 -1 -1 -2 -2 -2 -2 -1 -1 -1 -0 0 1 2 2 2 3 3 4 4 5 5 5 5 5 5 5 5 5 5 5
-3 -4 -4 -3 -2 -3 -3 -2 -2 -2 -2 -2 -2 -2 -2 -2 -2 -2 -2 -2 -2 -2 -2 -1 -0 0 1 1 2 2 3 3 3 4 4 4 4 4 4 4 5 5 5 5
-4 -4 -4 -4 -2 -3 -3 -3 -3 -3 -3 -3 -2 -3 -3 -3 -3 -3 -3 -3 -3 -3 -3 -2 -1 -0 0 1 1 1 2 2 3 3 3 3 4 4 4 4 4 4 4 4
-5 -5 -4 -4 -3 -3 -4 -4 -4 -4 -4 -4 -4 -4 -4 -4 -4 -4 -4 -4 -4 -3 -3 -3 -2 -1 -0 -0 0 1 1 2 2 2 3 3 3 3 3 3 3 3 4 4
-6 -5 -5 -4 -4 -5 -5 -4 -4 -4 -5 -4 -4 -5 -5 -5 -4 -4 -4 -4 -4 -4 -3 -3 -2 -2 -1 -1 -0 0 1 1 1 1 2 2 2 2 2 2 3 3 3 3
-6 -5 -5 -5 -5 -5 -5 -5 -6 -5 -5 -5 -5 -5 -5 -5 -4 -4 -4 -5 -4 -4 -4 -3 -3 -2 -2 -1 -1 -0 -0 0 1 1 1 1 1 2 2 2 2 2 2 2
-6 -7 -6 -6 -6 -6 -6 -5 -5 -5 -5 -6 -6 -6 -6 -6 -5 -5 -5 -5 -5 -5 -4 -4 -3 -3 -2 -2 -2 -1 -1 -0 -0 0 1 1 1 1 1 1 1 1 1 1
-7 -8 -8 -7 -7 -7 -6 -6 -5 -6 -6 -6 -6 -7 -7 -7 -6 -6 -6 -6 -5 -5 -5 -4 -4 -3 -3 -3 -2 -2 -1 -1 -1 -0 -0 -0 0 0 0 0 0 0 0 1
-8 -8 -8 -8 -8 -7 -7 -6 -7 -7 -7 -7 -7 -7 -7 -7 -7 -7 -7 -6 -6 -6 -5 -5 -4 -4 -4 -3 -3 -2 -2 -2 -2 -1 -1 -1 -0 -0 -0 -0 -0 -0 -0 0
-9 -9 -9 -8 -7 -7 -7 -7 -7 -7 -8 -8 -8 -7 -7 -7 -7 -7 -7 -7 -7 -6 -6 -6 -5 -5 -4 -4 -3 -3 -3 -2 -2 -2 -1 -1 -1 -1 -1 -1 -1 -1 -1 -0
-9 -9 -9 -9 -8 -8 -8 -8 -8 -8 -8 -8 -8 -8 -8 -8 -8 -8 -8 -8 -7 -7 -7 -6 -6 -5 -5 -5 -4 -4 -4 -3 -3 -2 -2 -2 -2 -1 -1 -1 -1 -1 -1 -1
-10 -10 -9 -9 -9 -8 -8 -8 -8 -8 -8 -8 -8 -8 -8 -8 -8 -8 -8 -8 -8 -7 -7 -7 -6 -6 -6 -5 -5 -5 -4 -4 -3 -3 -3 -2 -2 -2 -2 -2 -2 -2 -2 -2
-11 -11 -10 -10 -9 -10 -9 -9 -9 -9 -9 -9 -9 -9 -9 -9 -9 -9 -9 -9 -8 -8 -7 -7 -7 -7 -6 -6 -5 -5 -5 -5 -4 -4 -4 -3 -3 -3 -3 -3 -3 -3 -2 -2
Wind_Speed
1 1 5 8 8 5 4 5 8 6 3 4 8 9 8 5 4 5 4 4 5 6 4 2 4 5 5 6 7 7 7 7 7 5 5 4 4 3 3 4 6 7 8 9
2 5 6 3 3 4 6 7 7 6 3 4 6 9 8 5 4 4 4 4 4 3 1 1 3 4 6 7 7 7 7 8 7 6 5 3 4 3 3 3 5 6 7 8
4 4 3 2 3 5 8 8 6 5 3 3 2 6 6 4 2 2 2 2 2 3 4 3 3 4 5 6 7 8 7 7 7 6 5 5 4 3 2 2 2 3 6 7
4 4 3 3 4 4 8 6 6 6 3 4 4 5 6 4 2 2 3 2 3 2 2 2 2 3 5 5 6 7 7 7 7 7 7 8 6 4 3 4 3 3 5 6
4 3 3 4 5 4 5 4 6 6 5 4 4 4 6 1 3 4 3 3 3 2 2 2 2 3 3 4 5 7 7 7 7 7 8 8 5 4 3 4 4 4 3 4
4 2 2 3 5 3 2 1 1 1 2 5 7 7 5 2 4 4 3 3 2 2 1 0 1 1 2 3 4 5 7 6 7 7 7 7 7 6 6 5 5 3 2 2
6 4 3 2 4 2 1 2 0 1 3 6 5 5 4 2 2 2 4 4 3 1 1 1 1 2 2 2 3 4 6 6 6 7 6 7 7 8 8 6 6 5 3 2
4 6 4 3 1 3 3 3 4 4 4 2 2 5 2 3 4 3 3 3 4 3 2 1 1 1 2 2 3 3 6 6 6 7 6 5 6 5 5 5 4 5 4 4
2 6 5 6 4 0 1 3 2 1 1 2 3 2 3 6 8 8 7 6 5 5 4 2 1 1 2 2 2 3 4 5 5 6 6 5 5 5 5 4 3 3 3 3
1 5 6 5 4 3 1 1 1 2 2 3 3 2 3 6 8 9 8 6 6 5 5 4 2 1 1 1 1 2 3 4 4 5 5 5 5 4 4 4 4 4 3 4
0 2 6 4 2 3 4 2 1 1 2 2 3 2 2 4 6 7 7 6 6 4 4 3 3 3 2 2 2 2 2 3 3 3 4 4 4 4 4 4 4 4 3 4
2 1 4 5 3 1 1 1 1 1 3 2 2 3 3 4 5 6 6 6 6 5 4 4 4 4 4 3 3 2 2 2 2 3 3 4 4 4 4 3 3 3 4 3
1 1 3 5 3 4 2 3 2 2 1 1 2 3 4 6 7 8 7 6 6 6 5 5 5 5 4 3 3 2 2 1 1 2 4 4 4 4 4 3 3 3 3 3
3 1 3 5 5 3 5 6 4 1 1 3 4 5 8 8 9 9 9 7 6 5 5 5 5 5 4 3 3 3 3 2 2 2 3 4 4 4 3 3 3 3 3 3
3 1 3 5 5 3 4 5 4 2 2 3 6 6 7 7 7 7 8 8 8 7 6 5 5 5 5 4 4 4 3 3 2 2 2 2 2 3 3 3 3 3 3 3
3 2 3 5 4 3 5 7 5 3 4 4 5 6 6 7 6 6 7 8 8 7 7 6 6 5 5 5 4 4 3 3 2 1 1 1 2 3 3 3 3 3 2 2
2 1 2 3 4 3 3 5 5 3 4 3 4 7 8 7 8 7 7 7 7 6 7 6 5 5 5 5 4 3 3 2 2 2 2 2 2 2 2 3 3 3 2 2
2 1 1 1 2 1 3 2 4 4 4 5 5 8 8 7 7 6 5 5 6 7 7 7 6 6 5 4 4 4 3 2 2 2 2 2 2 2 2 2 2 2 2 2
1 1 0 1 1 3 3 4 5 4 5 6 8 10 11 9 5 5 7 7 7 7 6 6 5 4 4 4 4 4 4 3 3 3 2 1 1 1 2 2 2 2 2 2
4 3 2 1 0 2 4 7 8 2 3 7 9 10 11 10 5 6 10 10 9 8 7 6 6 5 5 4 4 4 3 3 3 2 2 1 0 1 2 1 1 1 2 2
4 4 2 1 1 3 5 9 5 2 5 9 9 8 8 6 4 7 9 9 8 7 7 7 7 6 5 4 4 4 4 3 3 3 2 1 0 1 1 1 1 1 1 1
1 1 1 0 1 4 6 5 3 3 6 8 8 7 7 7 6 7 8 8 9 9 8 8 7 7 7 6 5 4 4 4 4 3 2 2 1 1 1 2 1 1 2 2
1 2 2 3 3 3 4 3 4 4 6 7 7 7 6 7 7 7 8 8 7 8 8 8 7 7 8 7 6 5 5 5 4 3 3 3 3 3 2 2 2 1 1 1
3 1 1 2 3 4 5 5 6 5 6 7 6 6 6 6 7 7 7 7 7 8 8 7 7 7 8 8 7 6 6 5 4 4 4 3 3 4 3 2 1 1 1 1
2 1 1 3 4 5 4 5 7 7 7 7 7 6 6 6 7 7 6 7 7 7 7 7 7 7 7 8 8 8 7 5 4 4 4 4 4 3 3 3 3 2 1 0
1 1 1 3 3 3 5 6 7 7 8 8 7 8 7 7 6 7 7 6 6 7 7 7 7 7 7 8 8 8 8 6 4 4 4 3 3 3 3 3 4 6 4 5
Wind_Direction
15 141 226 229 226 245 248 245 251 253 241 210 234 254 270 268 248 239 238 234 229 234 244 194 174 168 160 158 157 157 160 154 146 143 147 147 150 144 135 131 142 144 141 139
25 252 257 275 251 257 256 262 264 274 247 221 250 268 271 253 232 228 224 227 232 242 273 221 169 165 170 170 168 162 163 161 161 160 155 144 137 135 128 123 128 140 142 142
222 278 314 310 271 258 257 238 245 263 281 240 257 278 263 267 240 262 263 247 234 215 219 217 179 179 172 171 172 168 168 163 159 147 133 117 97 91 104 124 134 134 143 142
262 289 309 295 256 234 255 240 242 260 238 240 192 259 267 251 274 282 282 284 266 255 230 213 181 170 171 174 166 157 161 159 156 149 150 151 155 158 168 160 154 134 140 141
278 293 293 272 269 239 242 265 239 242 228 245 200 220 277 279 267 286 287 278 276 271 228 206 195 184 174 158 158 155 153 155 155 156 158 156 152 148 136 134 139 144 138 138
285 294 288 277 292 252 269 330 317 237 184 237 207 193 271 236 241 279 301 297 299 320 310 342 61 112 127 132 139 149 152 155 155 156 158 161 158 149 143 145 153 154 147 135
325 319 322 332 342 342 41 111 35 285 217 236 191 186 240 286 318 312 319 319 317 337 354 42 71 102 113 133 143 153 154 157 159 160 165 169 166 161 162 163 165 160 159 170
325 305 318 343 290 256 246 192 185 210 221 265 198 212 234 339 337 343 352 353 0 1 360 5 146 137 138 133 139 147 159 161 164 165 168 169 165 165 167 167 166 172 180 181
300 286 321 331 327 227 274 244 241 187 261 251 239 267 317 350 358 4 9 11 2 351 354 353 6 93 119 122 129 150 155 157 165 169 165 164 165 166 166 165 162 170 170 163
236 281 302 318 344 359 271 259 66 160 199 234 257 252 290 336 345 350 356 350 344 350 0 8 10 31 85 111 113 130 138 156 159 163 165 163 166 166 161 159 164 167 167 158
244 266 307 343 10 339 2 9 314 239 219 204 238 263 346 337 336 341 343 346 344 351 355 8 16 24 50 73 85 105 121 127 140 152 155 150 153 147 144 153 163 167 164 159
278 197 282 275 275 292 100 339 315 254 278 265 224 254 345 4 353 352 350 352 359 11 18 27 29 33 39 49 63 73 103 123 143 151 145 141 139 140 144 152 158 157 160 161
329 80 330 333 347 15 11 348 319 262 277 266 233 264 346 6 2 359 356 354 5 17 24 30 31 28 31 32 36 45 61 98 119 139 142 139 141 143 153 161 159 160 162 162
359 139 200 232 270 302 305 324 328 321 240 271 253 281 322 347 348 348 351 352 4 16 24 27 26 20 16 21 26 30 28 40 82 113 137 148 157 160 165 162 159 164 165 166
30 297 255 260 278 289 318 322 335 338 280 249 277 286 312 327 326 336 348 354 359 6 12 14 12 8 8 13 14 14 23 28 44 104 124 155 161 153 149 152 156 154 157 168
13 312 297 287 286 316 337 350 344 333 330 303 301 301 332 333 345 351 350 351 349 352 357 1 1 3 3 0 1 4 8 17 36 78 110 121 135 138 143 152 151 147 152 159
329 327 316 288 307 344 340 340 334 339 344 333 309 309 333 345 344 335 332 338 338 342 351 355 352 351 350 348 350 357 356 7 35 51 72 76 110 129 143 145 145 155 161 157
252 269 249 293 18 274 271 338 348 330 339 353 348 339 339 326 321 326 337 341 339 344 347 347 348 348 350 353 359 4 11 28 44 41 52 62 87 112 120 131 147 159 160 169
224 188 48 32 294 286 318 352 345 321 324 0 351 344 341 335 339 356 1 353 344 342 344 343 343 345 353 5 9 13 20 30 37 28 24 37 73 116 123 133 157 169 164 173
39 54 88 74 179 267 301 320 323 288 323 353 349 341 340 348 351 330 342 346 349 354 358 359 1 8 10 8 17 25 21 27 19 359 345 351 42 147 152 161 174 183 180 186
5 20 50 76 233 274 314 325 354 55 309 325 332 333 336 335 312 315 334 346 354 358 1 7 10 12 5 5 24 28 20 4 348 354 357 359 12 150 150 136 140 153 148 139
297 352 326 99 263 280 339 5 34 303 316 325 327 332 332 330 339 346 348 354 358 1 5 9 12 8 1 6 19 19 7 352 359 9 14 21 39 77 95 108 100 98 119 125
213 207 217 205 227 286 338 339 323 327 326 327 329 332 339 344 349 351 353 357 359 0 1 3 10 6 3 5 13 10 352 356 7 19 33 39 42 44 63 96 108 99 101 119
308 328 243 282 292 311 327 346 350 348 337 331 333 337 347 346 347 352 357 358 360 0 359 2 10 11 4 4 8 6 355 0 19 29 35 45 53 45 42 50 72 95 114 134
282 320 310 284 301 325 342 352 347 345 345 345 348 355 354 356 352 350 352 355 357 356 359 7 10 7 1 3 6 4 2 9 23 34 37 41 48 50 43 39 37 39 29 149
321 242 235 263 297 301 306 329 341 344 346 347 352 356 358 0 355 355 355 356 358 1 5 7 7 6 3 4 6 5 4 10 25 35 37 40 43 45 46 49 42 39 41 39
Height
1471 1474 1474 1471 1471 1471 1472 1472 1470 1467 1464 1466 1465 1463 1460 1459 1459 1459 1459 1459 1460 1462 1465 1467 1470 1472 1476 1479 1483 1486 1490 1493 1496 1500 1503 1506 1509 1512 1515 1518 1520 1523 1525 1527
1475 1474 1470 1470 1470 1471 1471 1471 1469 1466 1463 1465 1465 1463 1459 1457 1457 1457 1457 1457 1458 1459 1461 1464 1466 1469 1472 1475 1479 1482 1486 1490 1493 1497 1500 1504 1507 1510 1513 1516 1518 1521 1523 1525
1475 1473 1470 1470 1470 1470 1469 1469 1469 1467 1463 1463 1465 1462 1457 1455 1455 1454 1455 1455 1456 1457 1458 1460 1463 1465 1468 1472 1475 1479 1483 1487 1491 1494 1498 1501 1504 1507 1510 1513 1515 1518 1521 1523
1474 1471 1470 1469 1469 1469 1468 1464 1465 1465 1466 1467 1465 1467 1456 1454 1453 1453 1453 1453 1453 1455 1456 1457 1459 1462 1465 1469 1473 1476 1480 1484 1487 1491 1494 1497 1499 1502 1506 1509 1513 1516 1518 1521
1474 1471 1470 1469 1467 1466 1465 1463 1463 1464 1466 1466 1464 1468 1459 1455 1454 1453 1453 1452 1452 1453 1454 1455 1456 1459 1463 1467 1470 1473 1477 1481 1484 1488 1491 1494 1497 1500 1504 1507 1510 1513 1515 1518
1473 1471 1470 1468 1465 1464 1464 1463 1463 1464 1466 1466 1461 1465 1460 1458 1454 1453 1452 1451 1450 1451 1452 1453 1455 1457 1461 1464 1467 1470 1474 1477 1481 1484 1487 1491 1494 1497 1500 1504 1507 1509 1512 1514
1476 1472 1469 1467 1466 1464 1464 1467 1470 1470 1467 1461 1458 1460 1460 1455 1454 1453 1452 1451 1450 1450 1450 1451 1452 1454 1457 1460 1463 1467 1470 1473 1477 1481 1484 1487 1491 1494 1497 1500 1503 1506 1508 1511
1485 1479 1471 1469 1469 1469 1467 1466 1470 1470 1464 1461 1458 1458 1460 1456 1454 1452 1451 1450 1449 1448 1449 1449 1451 1452 1455 1458 1460 1463 1467 1470 1474 1477 1481 1484 1488 1491 1494 1497 1500 1503 1505 1508
1488 1481 1472 1470 1468 1468 1468 1467 1465 1467 1466 1466 1462 1462 1459 1455 1453 1452 1451 1450 1449 1448 1448 1448 1450 1451 1453 1455 1458 1461 1464 1467 1471 1474 1478 1481 1484 1487 1490 1493 1496 1499 1502 1504
1489 1487 1476 1472 1469 1468 1469 1468 1470 1469 1466 1463 1462 1464 1463 1459 1457 1454 1452 1451 1449 1449 1448 1448 1449 1450 1452 1454 1456 1459 1462 1465 1468 1471 1474 1477 1481 1484 1487 1489 1492 1495 1498 1501
1488 1490 1482 1476 1475 1474 1473 1473 1471 1469 1467 1463 1464 1466 1463 1462 1459 1457 1455 1453 1451 1449 1449 1448 1449 1450 1451 1453 1455 1457 1460 1463 1465 1468 1471 1474 1477 1480 1483 1486 1489 1491 1494 1496
1487 1489 1487 1481 1476 1475 1475 1476 1476 1475 1472 1469 1466 1469 1463 1462 1460 1458 1456 1454 1452 1450 1449 1449 1449 1450 1450 1452 1454 1455 1458 1460 1463 1466 1469 1471 1474 1477 1480 1482 1485 1488 1490 1493
1487 1490 1491 1483 1481 1479 1479 1478 1477 1476 1475 1473 1470 1469 1463 1462 1460 1459 1457 1454 1452 1450 1449 1449 1449 1449 1450 1451 1452 1454 1456 1458 1461 1463 1466 1468 1471 1474 1476 1479 1482 1484 1487 1489
1486 1490 1493 1492 1485 1484 1482 1479 1476 1476 1477 1476 1473 1470 1466 1464 1462 1459 1457 1455 1453 1451 1450 1449 1449 1449 1450 1450 1451 1453 1454 1456 1459 1461 1463 1465 1468 1470 1473 1476 1478 1481 1484 1486
1489 1491 1490 1487 1483 1483 1481 1479 1477 1477 1476 1476 1473 1470 1468 1467 1464 1462 1460 1457 1454 1452 1450 1449 1449 1449 1449 1450 1450 1451 1453 1455 1456 1458 1460 1463 1465 1468 1470 1473 1475 1478 1480 1482
1491 1492 1490 1487 1482 1481 1480 1480 1478 1477 1476 1475 1472 1471 1470 1468 1465 1462 1460 1457 1455 1453 1451 1450 1449 1449 1449 1449 1450 1450 1451 1453 1454 1456 1458 1461 1463 1465 1467 1469 1471 1474 1476 1479
1494 1493 1491 1488 1484 1482 1485 1486 1483 1481 1481 1479 1477 1476 1471 1468 1465 1463 1460 1458 1455 1453 1451 1450 1449 1448 1448 1449 1449 1449 1450 1451 1453 1454 1456 1458 1460 1462 1464 1466 1468 1470 1473 1475
1494 1493 1492 1489 1489 1493 1492 1486 1485 1483 1481 1480 1478 1476 1472 1470 1466 1463 1461 1458 1455 1453 1451 1450 1449 1449 1448 1449 1449 1449 1449 1450 1451 1452 1454 1456 1457 1459 1461 1463 1464 1467 1469 1471
1492 1492 1493 1493 1495 1492 1488 1487 1487 1485 1482 1480 1479 1476 1472 1468 1464 1462 1461 1459 1456 1454 1452 1450 1449 1448 1448 1448 1448 1448 1448 1449 1450 1451 1452 1453 1455 1456 1458 1460 1462 1464 1465 1467
1493 1494 1496 1497 1497 1497 1494 1488 1485 1485 1483 1482 1480 1477 1474 1470 1467 1464 1461 1458 1456 1453 1451 1450 1448 1447 1447 1447 1447 1446 1447 1447 1448 1449 1450 1452 1453 1455 1456 1458 1459 1461 1463 1464
1500 1501 1504 1503 1502 1498 1494 1488 1485 1491 1490 1484 1481 1478 1475 1473 1471 1467 1462 1459 1456 1453 1451 1449 1448 1447 1446 1446 1446 1446 1446 1446 1447 1448 1449 1450 1451 1453 1454 1455 1457 1459 1460 1462
1506 1506 1506 1505 1505 1502 1494 1490 1492 1493 1488 1485 1481 1478 1475 1472 1468 1465 1462 1458 1456 1453 1451 1449 1448 1447 1447 1446 1445 1445 1445 1445 1446 1446 1447 1448 1450 1451 1452 1453 1455 1457 1458 1459
1506 1506 1504 1504 1504 1498 1495 1494 1493 1491 1488 1485 1481 1477 1475 1471 1468 1465 1462 1459 1457 1455 1453 1451 1449 1448 1447 1447 1446 1445 1445 1445 1445 1445 1446 1447 1448 1450 1451 1452 1453 1454 1456 1457
1505 1503 1503 1501 1498 1496 1495 1494 1492 1490 1488 1484 1481 1478 1474 1471 1469 1465 1462 1460 1458 1456 1454 1452 1450 1449 1448 1447 1446 1445 1445 1445 1445 1445 1445 1446 1447 1448 1449 1451 1452 1453 1454 1455
1506 1504 1503 1501 1498 1496 1494 1493 1492 1489 1486 1484 1481 1478 1475 1471 1468 1466 1463 1461 1459 1457 1455 1454 1452 1450 1449 1448 1446 1446 1445 1445 1444 1444 1444 1445 1446 1447 1448 1449 1451 1452 1453 1454
1505 1505 1505 1502 1499 1499 1496 1493 1491 1489 1486 1483 1480 1477 1474 1472 1469 1466 1464 1462 1460 1458 1456 1455 1453 1451 1450 1449 1447 1446 1446 1445 1444 1444 1444 1445 1446 1447 1448 1448 1450 1451 1452 1453